Theta_e
337 337 337 337 338 337 337 337 335 334 334 334 333 333 334 335 335 335 335 335 335 335 335 336 336 337 338 337 337 337 334 334 334 333 333 334 335 335 333 333 334 334 333 333 332 332 333 333 332 333 332 332 332 332 331 331 331 331 331 331 331 330 330
338 338 337 337 337 337 336 337 336 334 334 333 333 333 334 334 335 335 335 335 335 334 334 334 335 337 338 338 337 336 335 335 334 333 332 333 334 334 333 333 334 334 333 332 333 332 331 332 332 332 332 333 333 332 331 331 330 331 331 331 331 330 330
338 338 338 337 337 337 336 336 335 335 334 333 333 333 334 334 335 335 335 335 334 334 334 334 334 336 337 337 336 335 335 335 334 334 333 332 332 333 333 334 334 333 332 333 334 334 332 332 332 332 333 333 332 332 331 331 330 331 331 331 331 330 329
338 338 338 337 336 336 336 335 335 335 334 333 332 332 333 334 334 334 334 334 334 334 335 334 334 335 336 336 335 334 334 334 334 334 333 333 332 331 332 333 333 333 333 334 334 333 332 332 332 331 333 332 332 332 331 331 330 330 330 331 330 330 330
338 337 337 337 336 335 335 335 334 334 334 333 332 332 333 333 334 334 334 334 335 334 334 334 334 334 334 334 334 334 333 333 334 335 334 333 332 332 332 332 333 333 334 334 334 333 332 331 331 331 332 331 331 331 331 331 330 330 330 330 330 330 329
337 337 336 336 336 336 335 335 335 333 334 334 334 333 331 333 334 334 334 334 334 334 334 334 334 334 334 333 333 333 333 333 334 334 334 333 333 333 332 333 334 334 334 333 332 332 331 331 331 331 330 330 330 331 331 330 330 330 330 329 330 330 329
335 336 335 334 335 337 336 336 336 335 335 334 333 331 330 332 333 333 334 334 333 334 335 334 335 335 334 333 333 333 333 334 333 334 334 334 334 334 332 333 334 334 334 333 331 332 332 332 332 332 331 329 330 331 330 330 330 330 330 329 329 329 329
333 334 335 334 334 335 335 335 334 334 336 335 333 332 332 333 334 334 335 334 333 334 335 335 334 334 333 333 333 332 333 334 334 334 334 334 334 334 333 334 335 333 333 333 332 331 332 332 331 331 332 330 330 330 330 329 329 330 329 329 329 329 329
332 333 334 333 334 333 332 333 332 332 335 336 334 333 334 335 335 335 335 334 334 334 334 335 334 333 333 333 333 331 332 334 335 335 334 333 333 333 333 334 335 334 333 333 332 331 331 331 330 331 331 330 329 330 330 329 330 330 329 329 329 328 328
330 332 332 332 333 332 329 329 331 332 333 335 335 334 334 334 334 334 335 335 335 335 335 334 334 334 333 333 333 332 333 335 335 335 335 334 334 333 333 334 334 333 333 333 333 331 332 332 331 331 331 330 329 329 331 330 330 331 330 329 329 328 328
329 330 332 331 331 332 330 329 331 331 332 334 334 334 334 334 334 334 334 336 336 335 335 334 334 334 333 332 333 333 334 334 335 335 335 334 333 334 335 333 333 333 332 333 333 333 332 332 332 331 330 330 330 330 331 329 330 330 329 329 328 328 328
328 329 331 331 330 330 330 330 331 331 330 332 332 333 334 334 334 334 334 335 336 335 334 334 334 334 333 332 333 333 334 334 333 334 333 332 332 334 334 333 334 334 334 334 335 334 333 331 332 332 330 331 330 330 331 330 330 330 329 329 328 328 328
326 328 329 330 330 330 330 330 330 330 329 330 331 332 334 335 334 334 333 334 334 334 334 334 334 333 332 333 334 334 334 333 333 332 331 330 332 334 334 334 334 334 334 334 334 335 333 330 331 332 330 331 330 330 331 330 330 330 330 329 327 327 327
325 326 328 329 329 330 330 330 330 330 330 330 330 331 333 335 334 333 333 334 333 333 334 334 334 333 332 333 334 334 334 333 333 332 331 330 332 334 334 334 333 332 333 333 333 333 333 331 331 331 330 330 330 330 331 329 330 331 331 329 327 327 326
323 324 326 327 328 329 330 330 330 330 331 330 330 331 332 333 334 333 333 334 334 333 334 334 333 333 333 332 333 333 333 333 332 331 331 331 332 334 334 334 333 331 331 333 333 333 333 331 331 331 330 330 330 330 330 330 330 330 331 329 327 326 326
321 322 323 324 326 327 328 329 330 330 330 330 331 332 332 332 333 334 333 333 333 334 335 334 333 334 333 332 332 333 333 332 331 331 331 331 331 332 333 333 332 332 333 333 334 333 332 331 331 331 330 330 329 329 330 329 329 329 330 329 327 326 326
320 320 321 321 323 324 325 327 329 330 330 331 331 333 332 332 334 334 333 332 333 334 335 334 334 334 333 333 332 331 332 332 332 330 329 330 330 330 332 333 333 333 334 333 333 333 332 330 330 331 330 329 329 329 329 329 328 329 329 327 326 325 325
319 319 319 320 320 321 322 324 326 328 329 330 331 332 332 333 334 333 332 332 332 333 333 333 334 334 334 334 332 331 331 331 331 331 330 329 329 329 332 334 333 333 334 333 332 333 333 331 330 331 330 329 329 329 329 328 327 327 327 325 323 323 322
318 318 318 318 318 319 320 322 324 326 328 329 330 331 331 333 334 333 332 331 331 332 331 332 333 333 333 333 333 331 331 331 331 331 330 330 329 330 332 333 332 331 332 332 332 333 332 331 331 330 329 329 329 328 328 328 326 324 323 322 320 320 319
317 317 317 317 318 318 318 320 322 324 326 328 329 330 330 331 332 333 332 331 331 331 331 332 333 333 334 334 333 332 331 331 330 331 331 330 329 329 331 332 331 330 330 331 332 333 332 331 330 329 329 329 328 327 328 328 326 323 322 321 320 320 319
316 316 316 316 316 316 317 318 320 321 323 326 328 329 330 330 330 331 332 332 331 331 330 331 332 332 333 334 333 333 332 331 330 331 332 332 329 330 332 332 331 330 330 330 331 332 332 331 330 328 328 327 326 326 328 327 325 323 322 321 321 321 320
315 315 315 315 315 315 315 316 317 317 319 321 325 327 328 329 330 330 331 332 331 331 330 330 330 331 332 333 333 333 331 331 330 330 331 332 331 331 332 332 332 331 330 330 329 330 331 331 330 328 328 328 326 326 328 327 326 325 323 322 322 322 321
315 314 314 314 314 314 314 314 314 315 315 317 320 323 324 327 328 329 331 331 331 330 330 330 331 331 331 331 331 332 332 331 330 330 330 330 331 332 331 331 331 331 330 329 329 330 329 330 330 329 329 330 327 326 328 327 326 325 324 324 323 323 322
314 313 313 313 313 313 313 313 313 313 313 313 315 317 318 321 324 326 328 328 329 330 330 329 330 331 331 330 330 331 332 331 330 329 329 329 331 332 331 331 331 330 330 330 329 330 330 330 330 329 330 330 327 327 328 328 327 327 325 325 325 324 324
313 313 312 312 312 311 311 311 311 311 311 311 311 312 313 315 318 322 324 325 327 328 328 328 329 330 330 330 330 330 331 330 328 328 329 328 329 330 329 329 330 330 330 330 329 330 330 330 330 330 331 330 328 328 329 327 327 328 326 325 325 324 325
312 312 311 311 310 310 310 310 309 309 310 310 309 309 309 310 312 316 318 320 322 323 324 326 328 328 329 330 330 330 329 328 327 328 328 328 328 330 330 328 329 330 330 330 330 331 330 330 330 330 330 329 328 328 329 328 328 328 326 324 324 324 324
311 311 311 310 310 310 309 309 309 308 308 308 308 307 306 306 307 310 312 314 315 317 320 323 326 326 327 328 328 329 328 328 327 326 327 328 329 331 332 331 330 330 331 331 330 330 329 330 330 329 329 329 328 327 326 327 328 326 324 324 324 324 322
311 310 310 310 310 309 309 308 308 307 307 307 306 305 305 304 304 305 307 309 310 312 314 318 321 322 324 324 325 327 327 327 326 325 326 329 329 329 330 330 330 330 330 330 329 329 329 328 328 328 327 326 325 324 323 324 326 325 323 324 325 323 322
310 310 310 310 309 309 308 307 307 306 306 306 305 304 304 303 303 303 304 305 307 308 309 312 315 317 320 322 323 325 326 326 326 325 325 328 329 328 328 328 327 327 328 328 327 328 328 328 327 327 324 322 321 320 320 321 323 323 323 324 324 323 323
309 309 309 309 309 308 307 307 306 306 305 305 304 304 303 303 302 302 302 303 304 305 306 309 311 314 317 319 319 322 324 325 324 324 325 327 328 327 326 327 326 326 327 327 326 327 327 327 327 326 322 319 317 316 316 319 321 323 324 325 324 323 324
308 308 308 308 308 308 307 306 306 305 305 304 304 303 303 302 302 301 301 301 301 302 304 307 309 312 315 316 317 320 322 323 324 325 325 325 325 324 324 326 326 326 327 327 325 326 326 325 326 324 321 318 316 314 314 316 318 320 321 320 318 318 320
307 307 308 307 307 307 307 306 306 305 304 304 303 303 302 302 301 301 300 300 300 301 302 305 308 311 314 315 317 320 322 322 323 322 321 321 320 320 322 324 325 325 326 325 324 324 323 324 324 322 320 318 316 314 313 314 315 316 315 314 313 314 315
306 306 306 307 306 306 306 306 306 305 305 304 303 302 302 302 301 300 300 300 300 299 300 302 306 310 313 314 316 319 321 320 318 318 318 317 316 317 318 320 321 321 322 322 322 321 321 322 322 322 321 319 317 316 315 314 315 315 314 313 312 312 312
305 305 305 306 306 306 305 305 305 305 305 304 304 303 302 302 301 300 300 299 299 299 299 300 303 307 310 312 314 316 318 318 316 316 315 314 313 314 315 316 316 316 318 319 319 320 320 321 321 321 320 318 316 315 315 314 314 314 312 311 311 310 310
304 304 304 304 304 304 304 304 304 304 304 304 303 303 302 302 301 301 300 299 299 299 299 299 300 303 306 309 311 313 315 315 314 314 313 311 311 312 313 313 312 312 314 317 317 318 318 319 319 318 318 316 315 314 314 313 312 312 311 311 310 310 309
303 303 302 302 302 302 302 302 303 303 303 303 303 302 302 302 301 300 300 299 298 298 299 299 299 300 302 304 307 309 311 311 311 312 312 309 308 309 310 311 311 310 312 314 315 316 316 317 317 316 315 314 314 313 313 312 312 311 311 310 310 309 308
302 302 302 302 302 301 301 301 302 302 302 302 302 302 302 301 301 300 300 299 298 298 298 299 300 300 300 300 302 305 307 308 309 309 309 306 305 306 308 308 309 309 310 312 313 314 314 313 313 313 312 312 312 311 311 310 310 310 309 309 308 308 307
Wind_Speed
9 9 8 7 9 11 11 12 15 18 18 18 18 18 18 16 16 16 16 18 22 23 23 24 22 18 16 16 16 18 22 21 19 17 14 14 16 17 19 19 16 13 10 11 11 8 6 6 9 11 11 12 11 10 11 11 11 10 8 7 7 8 7
8 8 7 7 8 9 9 11 13 15 16 17 17 17 17 15 14 15 16 18 21 22 22 23 22 19 18 18 19 20 22 21 21 19 16 18 22 20 18 18 17 15 13 12 12 11 8 6 7 8 10 11 9 11 12 12 12 11 10 9 8 7 7
7 8 7 7 7 8 8 9 10 12 14 15 16 16 14 14 15 16 18 18 19 20 20 21 21 19 18 20 22 23 24 25 23 20 19 21 24 21 18 17 16 15 13 11 10 10 8 6 6 7 11 12 9 10 13 14 13 11 11 11 9 8 7
7 8 8 8 7 7 8 8 9 11 13 15 16 15 13 15 18 20 19 18 17 18 20 21 22 21 21 22 23 22 25 27 23 21 21 22 23 22 21 19 16 15 13 10 10 10 9 7 6 6 10 12 11 10 13 14 13 12 11 11 10 9 8
8 10 10 10 8 7 8 8 9 11 13 15 16 15 15 16 19 21 19 18 18 17 20 22 23 23 23 24 24 23 26 27 23 20 20 22 23 21 21 19 16 14 13 10 9 10 9 8 7 6 8 11 10 11 14 13 12 12 11 11 10 9 9
8 10 10 11 10 9 10 9 11 14 13 14 16 16 16 18 21 22 20 21 21 19 20 21 22 22 21 23 26 25 24 24 23 21 20 21 22 19 18 17 15 13 13 12 10 9 9 8 7 6 9 11 10 10 14 14 12 11 11 11 10 9 9
10 10 11 12 12 10 11 11 13 16 14 14 17 18 18 19 20 20 19 22 22 20 20 21 22 21 19 19 23 24 23 21 22 23 22 22 22 20 19 17 15 14 13 12 11 11 10 9 9 7 7 9 12 12 12 13 13 12 11 11 11 9 9
13 11 11 13 14 12 13 15 16 17 16 14 16 17 17 16 16 15 16 20 23 21 21 21 21 22 20 17 17 21 23 22 22 24 24 22 22 22 20 16 14 14 14 13 13 12 11 10 10 9 7 6 9 10 8 10 12 13 13 12 11 11 10
15 14 12 13 15 16 16 17 18 20 18 16 16 16 15 14 14 15 16 18 21 20 20 19 18 19 20 18 15 17 22 23 21 24 24 21 21 22 20 16 15 14 14 14 13 12 11 10 10 10 10 9 8 7 6 7 9 10 13 13 11 12 12
15 17 15 13 15 17 17 17 18 20 19 16 17 18 17 15 15 16 17 17 19 20 20 18 16 16 18 18 16 16 20 21 18 19 21 20 21 21 18 17 15 13 14 14 13 12 10 10 10 10 13 12 9 7 6 6 7 8 11 13 12 13 14
15 17 16 15 15 15 15 16 17 19 19 18 19 19 18 17 17 17 18 16 17 20 20 17 15 15 16 17 18 17 17 17 17 18 19 19 20 18 17 17 14 13 15 15 14 13 12 12 11 11 13 13 9 7 7 6 7 10 14 13 13 15 15
16 17 16 16 16 14 14 14 15 17 19 19 20 19 18 19 18 17 18 16 15 17 18 16 14 14 15 16 18 20 18 17 19 21 19 20 21 19 17 17 14 13 14 14 13 12 14 15 12 11 13 13 11 10 10 8 6 11 16 15 15 16 16
17 17 16 15 15 14 13 12 13 15 17 19 21 20 18 18 18 17 17 16 15 15 16 17 16 15 16 17 17 18 17 16 18 21 21 22 22 19 17 17 16 15 14 13 13 13 15 17 15 14 13 13 12 12 12 9 5 8 13 15 16 15 17
16 17 16 15 13 12 12 12 13 14 14 17 21 20 18 16 16 17 17 16 17 16 16 17 18 18 19 20 18 17 16 14 15 18 21 21 19 17 17 17 17 17 16 15 15 14 15 16 16 16 15 13 13 12 13 12 9 7 8 14 17 15 18
16 16 17 16 14 13 13 13 13 14 15 17 18 18 18 17 15 15 15 16 16 15 14 16 18 19 21 22 20 18 16 14 15 18 21 21 18 18 18 18 17 18 18 17 16 15 16 16 16 16 16 15 15 14 15 14 11 9 8 12 16 15 18
16 17 17 16 15 15 15 15 14 15 16 17 15 14 17 17 15 14 15 16 14 11 12 15 16 18 21 22 21 20 18 18 18 20 22 21 18 18 20 20 18 18 17 17 16 15 16 18 17 17 17 17 16 15 16 14 12 14 12 12 15 15 16
16 17 17 17 17 17 17 17 16 15 16 18 15 13 14 15 15 16 17 16 14 11 12 14 15 17 18 18 20 21 20 21 21 21 21 21 18 18 18 18 17 17 16 17 18 16 18 22 20 17 18 17 15 15 17 15 13 16 15 14 15 16 16
16 17 17 17 18 18 18 18 18 17 17 18 17 15 15 14 15 18 18 16 13 13 14 15 15 17 16 15 18 20 19 21 22 21 20 21 22 21 19 16 17 17 17 17 18 18 19 22 21 20 19 17 16 16 17 15 15 17 16 15 16 15 16
17 18 18 18 19 19 19 19 20 19 18 18 18 18 16 15 15 18 18 16 14 16 19 18 16 16 16 15 19 20 18 20 21 20 20 23 26 24 19 17 18 19 20 19 19 19 20 21 21 21 18 17 17 17 16 15 14 17 16 15 15 15 15
18 18 18 19 19 19 20 19 20 19 19 18 18 19 18 17 16 17 17 17 17 17 18 17 15 15 15 15 18 18 16 18 20 19 19 22 24 20 15 17 20 19 20 22 19 18 18 16 14 11 6 8 12 13 15 15 15 15 17 16 15 15 15
19 19 19 19 18 19 20 20 20 20 20 19 18 18 19 19 18 18 16 17 17 16 15 15 14 15 14 13 15 15 15 17 19 19 19 20 20 16 14 17 19 16 17 20 18 15 15 13 10 7 3 6 14 14 14 17 16 14 16 16 15 15 15
20 20 20 19 19 19 20 20 21 22 22 21 19 18 18 18 20 19 17 14 14 15 15 15 15 14 12 12 13 14 15 18 20 20 22 21 18 18 18 17 17 17 17 19 18 17 18 17 14 14 12 13 19 19 16 17 17 15 16 17 16 16 15
21 21 21 20 20 20 20 20 21 22 23 23 21 19 18 18 18 18 17 15 15 14 14 15 15 13 13 13 13 13 13 16 19 19 21 21 18 20 21 18 17 19 18 17 16 16 19 18 15 16 15 14 18 21 19 17 17 17 16 14 15 16 15
21 21 22 21 20 21 21 21 21 22 23 24 23 21 20 20 19 16 15 16 16 12 10 14 16 16 16 16 14 12 11 13 16 18 20 21 20 20 20 17 18 19 18 17 16 14 15 16 15 16 14 14 18 21 19 17 14 12 11 11 13 12 11
21 22 22 22 21 21 21 21 21 21 22 24 24 23 22 21 20 20 17 16 15 12 10 14 16 16 17 17 16 16 16 16 16 17 22 26 25 22 19 16 17 18 17 18 18 15 15 16 16 14 13 14 18 18 19 19 14 9 10 13 14 10 8
21 22 22 22 22 22 21 22 22 22 21 22 22 23 24 23 22 21 20 18 17 14 9 11 13 13 14 15 16 17 18 19 18 18 23 26 23 19 17 16 17 16 13 15 16 15 17 18 18 16 15 16 17 14 14 18 17 12 11 14 14 13 12
20 21 22 22 22 22 22 22 22 22 21 21 22 23 24 25 24 23 21 19 18 15 10 10 13 14 14 14 16 17 19 20 19 18 20 19 15 12 12 13 14 11 10 13 16 16 16 17 18 18 15 13 13 12 11 14 16 14 11 10 10 11 13
19 21 21 22 22 22 22 22 22 21 21 21 22 22 22 24 24 23 22 20 18 16 14 14 15 16 17 17 17 18 19 20 18 17 18 16 12 11 12 12 11 10 9 11 15 16 15 15 17 17 14 11 11 11 11 14 15 13 10 8 9 11 12
19 20 21 21 22 22 22 22 21 21 20 20 21 21 21 21 22 22 22 22 19 17 16 16 15 16 17 18 19 19 20 18 15 15 18 15 10 9 10 11 11 12 11 11 12 16 15 14 14 15 15 14 12 10 9 11 13 13 11 9 10 10 11
19 20 20 21 21 21 21 21 21 20 20 20 21 21 21 20 20 20 22 24 23 20 19 18 14 13 14 15 17 17 17 15 11 13 18 15 8 7 7 8 9 10 9 8 10 14 16 15 14 14 16 16 15 13 13 13 12 12 12 13 14 15 16
19 19 20 20 21 21 21 21 20 20 19 19 20 20 21 20 20 22 22 24 25 23 22 21 15 9 8 8 8 9 9 9 8 11 12 5 5 5 5 7 8 7 6 6 7 11 15 14 13 15 16 18 18 18 19 19 19 17 17 18 19 20 19
19 19 19 20 20 20 21 21 20 20 19 19 19 19 21 21 22 23 23 23 27 28 26 24 20 12 6 4 1 2 3 2 2 0 3 9 11 8 6 6 6 6 6 6 6 9 13 13 12 15 16 17 19 20 19 19 20 20 18 17 17 17 16
19 18 18 18 18 18 19 19 20 20 20 20 19 19 20 21 21 22 22 22 26 31 31 28 23 16 10 8 6 6 7 9 8 8 9 9 8 7 8 8 8 6 5 6 8 11 12 11 11 14 15 15 17 19 18 18 18 19 18 18 17 16 16
18 18 18 18 17 17 18 18 19 19 19 19 19 20 20 21 21 22 22 23 25 29 32 33 29 21 14 12 10 8 8 7 6 6 8 8 7 9 10 10 11 9 8 11 13 13 13 12 12 13 14 16 19 21 20 19 19 19 20 20 19 17 16
18 18 19 19 19 19 19 18 18 19 19 18 19 20 20 20 21 21 22 25 28 30 32 34 34 29 21 16 11 8 7 5 3 4 6 8 10 12 13 13 13 12 11 14 14 13 13 13 12 12 14 18 21 22 21 20 18 18 18 18 18 17 15
19 19 19 19 20 21 20 19 19 19 20 19 19 20 20 20 20 21 22 24 28 31 32 32 33 33 29 22 16 11 8 6 5 6 9 13 15 17 17 16 15 12 11 13 14 14 13 13 13 14 16 18 20 21 20 19 17 17 17 17 17 17 15
20 19 19 19 20 21 22 21 20 20 20 20 20 20 20 20 20 21 21 22 23 27 31 31 30 31 31 28 25 20 15 12 11 12 16 19 20 20 20 18 17 15 13 13 15 16 17 18 19 20 20 21 21 20 20 20 19 19 20 19 18 17 15
Wind_Direction
283 289 292 284 274 271 263 251 249 249 245 241 241 245 248 248 246 241 240 240 237 239 239 236 235 232 223 214 209 211 211 208 201 197 200 200 202 212 214 217 226 227 213 203 203 193 178 183 190 184 176 179 182 193 197 189 188 186 181 184 181 181 173
287 295 293 283 272 266 261 251 246 243 239 235 234 240 245 244 245 246 244 242 238 238 240 239 237 233 226 217 212 209 207 206 203 199 201 207 210 211 209 209 218 222 218 213 208 206 204 185 181 181 168 169 181 191 192 190 191 188 182 182 187 187 170
288 291 290 285 269 254 252 247 241 235 230 230 227 226 230 232 234 240 242 243 240 238 241 242 239 234 227 222 218 214 210 207 205 202 203 208 212 218 217 209 210 217 216 210 203 207 212 196 187 180 167 169 180 189 189 187 186 188 187 183 183 187 176
281 279 277 272 259 247 244 231 227 231 227 226 220 210 213 222 227 231 234 238 238 236 238 240 238 233 229 227 224 221 215 209 206 204 205 209 211 218 219 211 209 213 211 208 200 201 206 194 186 178 173 176 174 179 187 186 186 189 188 185 183 183 178
276 271 272 269 258 247 243 228 223 231 227 225 219 208 209 216 222 226 228 230 232 232 236 238 238 234 232 230 227 225 217 209 206 201 202 209 210 213 215 211 210 210 210 213 202 201 206 195 188 181 179 180 171 174 179 178 190 193 186 187 186 183 179
282 269 271 274 268 255 249 241 235 236 232 229 224 217 215 215 218 222 222 224 226 227 231 234 235 236 234 230 226 224 217 210 208 204 203 208 209 213 216 210 208 207 209 213 203 201 202 189 191 190 181 178 167 171 174 171 185 191 184 188 187 181 180
297 278 268 266 264 254 251 251 249 246 242 237 232 230 228 222 220 220 219 223 223 223 227 228 230 233 233 228 221 218 219 215 210 206 205 207 209 215 216 209 207 207 206 206 201 201 196 185 190 193 189 177 163 168 175 174 181 185 185 188 184 182 180
307 298 279 266 264 260 254 254 257 256 254 250 244 241 239 230 225 223 221 224 223 221 222 222 226 229 230 228 217 213 219 217 211 209 208 208 212 215 214 207 204 206 206 205 204 204 199 191 190 191 196 182 165 169 174 179 185 185 184 183 181 183 178
310 304 292 274 272 273 266 260 262 265 264 261 257 255 252 243 234 229 225 224 223 223 223 220 221 224 225 228 225 220 219 214 209 210 210 209 211 213 211 206 203 204 205 206 207 208 205 200 195 193 197 193 181 174 168 180 187 184 181 177 179 185 177
315 309 305 292 282 283 281 272 267 271 272 269 267 265 261 254 246 237 230 223 219 222 224 219 217 221 223 225 229 230 224 215 210 212 213 211 211 211 208 204 203 205 205 203 204 204 202 206 206 200 200 203 200 185 176 188 183 180 188 183 179 182 177
322 316 313 308 302 301 298 289 279 275 275 273 271 268 262 257 253 244 237 228 217 218 220 218 215 220 225 227 230 235 233 223 217 218 218 216 214 211 205 201 202 206 208 204 202 199 194 201 210 206 205 211 209 186 180 200 189 176 186 188 181 180 177
329 325 324 322 318 310 302 296 289 280 276 274 272 268 263 259 256 250 243 234 223 217 216 216 214 214 223 230 232 235 236 230 223 220 221 222 218 210 201 199 200 203 207 205 204 203 199 200 207 209 211 214 211 192 185 198 195 174 179 186 183 180 177
334 332 334 334 327 314 303 297 290 281 279 278 273 267 264 262 261 259 252 240 230 220 211 210 210 209 217 222 222 227 231 232 226 221 220 220 215 207 200 199 202 205 206 206 207 208 207 207 210 213 216 218 212 201 193 192 191 185 183 180 177 176 177
339 337 336 336 335 326 314 305 297 290 285 279 272 267 264 261 258 258 255 246 237 224 211 211 210 208 215 217 215 220 223 227 229 226 225 220 208 201 201 199 203 208 207 207 208 206 208 210 212 217 223 225 216 203 199 192 178 191 193 175 172 175 176
343 340 337 336 337 331 320 312 305 299 291 282 277 275 274 269 264 260 257 252 242 221 207 213 215 212 216 219 217 218 216 221 232 234 233 226 207 199 205 201 200 208 207 206 206 202 204 207 211 219 220 217 216 209 208 201 172 173 193 177 174 175 172
347 345 342 338 335 329 321 315 308 299 293 288 285 286 287 286 282 272 263 260 255 235 213 216 219 214 214 215 215 215 214 217 227 233 235 235 220 205 208 206 203 205 201 202 207 204 202 205 210 220 219 214 215 208 207 208 176 169 182 176 176 177 171
351 348 346 341 336 329 322 318 312 304 300 298 295 295 293 290 285 274 263 259 260 253 228 215 215 213 211 211 214 217 217 217 223 228 232 238 232 213 206 204 202 204 199 201 211 209 207 211 212 219 223 218 213 204 204 206 179 166 172 174 180 180 171
356 351 346 341 338 333 326 322 318 311 307 305 301 297 291 284 281 276 270 264 263 262 246 224 215 213 210 212 219 220 220 222 227 229 230 237 235 219 208 205 203 205 205 206 211 209 209 214 215 216 217 211 204 203 206 203 180 168 173 179 183 180 169
358 354 349 343 340 337 331 326 321 314 310 307 304 300 295 287 280 278 277 270 263 265 259 242 224 217 214 216 222 222 222 225 227 226 230 239 236 220 207 207 208 205 204 206 212 214 212 214 215 214 210 204 202 197 194 199 192 179 175 178 182 175 168
358 356 352 346 342 340 336 331 326 320 312 307 304 303 300 296 287 279 276 272 264 263 264 256 239 224 215 214 220 220 221 228 226 220 225 237 237 224 207 210 215 212 209 210 215 216 214 217 223 226 212 199 205 197 185 193 201 187 176 177 180 175 170
358 356 353 349 346 343 340 337 333 330 324 317 308 302 300 298 293 285 278 275 273 269 268 266 255 237 220 214 219 217 216 227 228 219 220 233 237 227 213 215 217 216 215 218 222 220 216 219 222 227 233 193 200 207 196 190 195 192 180 177 181 180 176
359 358 355 353 350 347 345 342 340 339 339 335 325 316 309 301 294 290 284 278 276 273 268 264 260 251 234 220 219 217 216 226 231 225 221 227 231 223 217 216 216 219 219 216 216 215 216 221 218 210 208 195 195 203 200 187 190 195 190 185 184 185 183
1 360 358 356 353 351 350 348 347 346 346 346 342 336 332 321 306 294 285 279 276 275 271 262 256 253 244 235 229 222 220 226 232 233 228 224 223 220 218 214 214 223 227 215 206 207 214 223 224 212 204 200 200 201 197 193 194 196 198 195 186 185 190
3 2 0 359 357 355 354 353 352 351 350 353 353 350 348 343 333 321 305 290 282 276 274 268 261 250 242 242 236 225 227 232 231 235 237 230 222 218 215 211 214 224 230 222 211 208 211 214 215 211 203 198 201 200 197 201 201 189 191 200 192 189 200
6 5 3 3 0 359 359 358 357 356 354 355 357 357 356 352 345 340 332 317 306 296 275 263 261 250 238 240 238 230 234 239 235 235 235 229 222 217 210 206 212 219 222 221 216 209 209 209 206 206 200 192 194 198 198 202 206 190 173 181 188 194 223
10 8 6 5 4 3 3 2 2 1 358 357 357 358 359 358 353 347 341 335 333 326 287 250 252 250 240 239 238 234 234 238 242 248 243 229 218 212 206 200 204 206 203 207 209 205 205 205 203 202 202 199 200 204 203 203 210 216 194 185 194 199 215
11 11 9 8 7 7 6 5 4 2 2 1 0 360 360 360 360 357 351 346 343 338 316 275 265 261 255 251 245 239 238 238 243 257 258 241 217 205 205 200 198 196 192 199 202 199 196 199 201 200 196 194 195 200 205 202 207 217 210 202 215 211 208
12 13 13 12 12 10 8 7 5 4 5 6 5 3 2 1 1 1 359 355 350 344 329 305 288 275 267 265 260 249 240 236 239 251 257 248 222 206 209 208 202 196 199 208 207 201 192 188 189 185 174 168 170 176 187 193 195 201 197 196 226 233 221
14 14 15 15 15 13 11 10 8 7 8 9 8 7 6 5 4 4 3 1 358 352 342 329 313 295 281 273 267 256 241 234 242 253 253 244 217 195 198 207 213 211 210 216 214 203 192 183 178 166 154 157 161 153 154 171 186 198 198 193 205 208 193
17 16 16 18 17 16 15 13 11 12 12 13 13 11 9 8 7 7 7 6 4 359 355 354 339 308 292 280 269 256 238 230 241 254 251 241 210 174 170 183 204 217 215 215 214 205 199 196 186 164 147 144 144 134 129 138 156 175 175 162 154 144 139
21 19 19 20 19 19 20 17 16 17 17 17 18 16 14 13 12 13 12 10 9 7 5 6 1 329 300 288 268 247 227 227 250 254 245 223 118 123 152 167 186 199 189 193 209 205 199 194 182 165 150 138 132 130 129 131 135 140 141 134 126 122 120
21 20 19 20 19 19 20 21 21 23 24 23 21 20 19 18 18 18 17 16 17 17 15 13 11 3 347 337 322 174 153 106 48 341 116 84 81 91 108 125 155 170 173 188 196 187 187 185 171 162 155 141 134 134 134 132 130 128 125 116 105 103 105
21 19 17 17 18 19 19 20 19 20 24 25 24 23 23 22 20 20 19 21 22 21 21 21 19 15 9 12 39 90 101 92 92 101 101 93 93 102 101 102 115 129 152 172 165 163 176 184 172 165 158 143 136 136 134 129 124 122 117 109 101 97 96
23 20 16 15 16 18 19 19 18 17 18 20 22 23 24 23 23 21 20 23 25 24 24 26 26 24 22 23 37 75 98 105 120 121 110 108 108 103 101 103 103 106 127 145 146 146 152 154 148 144 140 134 132 131 126 120 119 118 113 105 101 97 93
24 22 20 18 18 18 17 18 20 19 17 18 20 22 23 23 23 22 20 23 27 28 27 29 31 31 31 33 39 60 88 103 130 136 116 106 101 101 104 106 102 103 122 136 138 135 134 137 134 123 122 130 133 129 120 115 115 114 110 106 104 101 97
24 23 24 24 23 21 19 18 20 20 20 21 21 21 22 22 20 20 18 19 24 28 28 30 34 36 37 39 47 61 81 95 111 133 126 112 105 106 110 112 110 108 115 126 128 125 123 128 127 121 122 127 127 124 118 114 114 112 108 106 103 99 96
26 23 23 24 26 25 22 21 20 20 21 22 23 23 24 22 20 20 18 16 17 24 28 31 35 39 40 43 50 60 72 87 103 117 116 109 106 106 109 112 113 112 112 116 121 121 121 121 121 122 124 124 121 120 118 115 113 112 107 102 97 92 90